Hourly Data Report for October 04, 2017

All times are specified in Local Standard Time (LST). Add 1 hour to adjust for Daylight Saving Time where and when it is observed.

LYTTON A
BRITISH COLUMBIA

50°13'28.000" N
121°34'55.000" W
224.90 m
1114738
71812
WLY

Download Data

Hourly Data (October 2017)
Hourly Data Report for October 4, 2017
Temp Definition
°C
Dew Point Temp Definition
°C
Rel Hum Definition
%
Wind Dir Definition
10's deg

Wind Spd Definition
km/h
Visibility Definition
km
Stn Press Definition
kPa
Hmdx Definition


Wind Chill Definition


Weather Definition


TIME
00:00 Legend Double Dagger 5.1 -2.1 60 LegendMM 4 16.1 100.05     LegendNANA
01:00 Legend Double Dagger 5.3 -3.2 54 16 9 16.1 100.10     LegendNANA
02:00 Legend Double Dagger 3.9 -1.0 71   0 16.1 100.13     LegendNANA
03:00 Legend Double Dagger 3.5 -3.1 62   0 16.1 100.10     LegendNANA
04:00 Legend Double Dagger 2.8 -2.8 67   0 16.1 100.10     LegendNANA
05:00 Legend Double Dagger 2.1 -3.2 68 LegendMM 4 16.1 100.12     LegendNANA
06:00 Legend Double Dagger 2.3 -3.5 66   0 16.1 100.10     LegendNANA
07:00 Legend Double Dagger 3.1 -3.9 60 LegendMM 8 16.1 100.12     LegendNANA
08:00 Legend Double Dagger 3.2 -3.9 60 1 8 16.1 100.08     LegendNANA
09:00 Legend Double Dagger 6.9 -4.6 44 LegendMM 5 16.1 100.02     LegendNANA
10:00 Legend Double Dagger 10.0 -4.9 35 2 22 16.1 99.94     LegendNANA
11:00 Legend Double Dagger 11.8 -4.8 31 1 13 16.1 99.81     LegendNANA
12:00 Legend Double Dagger 15.1 -4.3 26 1 11 16.1 99.68     LegendNANA
13:00 Legend Double Dagger 16.5 -4.6 23 33 5 16.1 99.55     LegendNANA
14:00 Legend Double Dagger 18.6 -4.5 20 LegendMM 5 16.1 99.45     LegendNANA
15:00 Legend Double Dagger 18.9 -4.5 20 LegendMM 4 16.1 99.39     LegendNANA
16:00 Legend Double Dagger 16.8 -3.8 24 17 8 16.1 99.36     LegendNANA
17:00 Legend Double Dagger 14.0 -2.4 32 15 9 16.1 99.36     LegendNANA
18:00 Legend Double Dagger 11.9 -1.6 39   0 16.1 99.42     LegendNANA
19:00 Legend Double Dagger 10.0 -1.5 44 16 8 16.1 99.48     LegendNANA
20:00 Legend Double Dagger 9.2 -0.4 51   0 16.1 99.51     LegendNANA
21:00 Legend Double Dagger 7.1 -0.9 57   0 16.1 99.57     LegendNANA
22:00 Legend Double Dagger 6.3 -0.4 62   0 16.1 99.58     LegendNANA
23:00 Legend Double Dagger 5.1 0.4 72   0 16.1 99.61     LegendNANA

Notes on Data Quality.

Legend

  • E = Estimated
  • M = Missing
  • NA = Not Available
  • ‡ = Partner data that is not subject to review by the National Climate Archives
Date modified: